Home   Weather   Växjö   Past weeks

Flag for Sweden Past Weather in Växjö, Sweden — Yesterday and Last 2 Weeks

Now
48 °F

Scattered clouds.


Feels Like: 44 °F
Forecast: 29 / 43 °F
Wind: 9 mph from Southwest

Location: Vaxjo Airport

Current Time: Apr 23, 2017 at 2:14:04 pm

Latest Report: Apr 23, 2017 at 1:20 pm


Visibility: N/A

Pressure: 29.77 "Hg

Humidity: 40%

Dew Point: 25 °F

Location of VäxjöLocation

Past Weather in Växjö — Graph

°F

Växjö Temperature Yesterday

Maximum temperature yesterday: 52 °F (at 12:50 pm)
Minimum temperature yesterday: 34 °F (at 1:50 am)
Average temperature yesterday: 41 °F

High & Low Weather Summary for the Past Weeks

 TemperatureHumidityPressure
High57 °F (Apr 9, 4:20 pm)100% (Apr 10, 1:20 am)30.57 "Hg (Apr 10, 1:20 am)
Low19 °F (Apr 19, 4:20 am)23% (Apr 19, 5:20 pm)29.42 "Hg (Apr 12, 3:50 pm)
Average40 °F71%29.90 "Hg
* Reported Apr 8 12:20 pm — Apr 23 12:50 pm, Växjö, Weather by CustomWeather, © 2017

Note: Actual official high and low records may vary slightly from our data, if they occured in-between our weather recording intervals... More about our weather records

Advertising

Växjö Weather History for the Previous 24 Hours

Scroll right to see more
 ConditionsComfort  
Time TempWeatherWind HumidityBarometerVisibility
12:50 pm
Sun, Apr 23
48 °FPassing clouds.8 mph34%29.80 "HgN/A
12:20 pm46 °FScattered clouds.10 mph34%29.80 "HgN/A
11:50 am46 °FScattered clouds.10 mph34%29.80 "HgN/A
11:20 am48 °FScattered clouds.9 mph34%29.80 "HgN/A
10:50 am48 °FBroken clouds.8 mph32%29.83 "HgN/A
10:20 am48 °FPassing clouds.6 mph32%29.83 "HgN/A
9:50 am46 °FCool.3 mph37%29.83 "HgN/A
9:20 am45 °FQuite cool.1 mph39%29.83 "HgN/A
8:50 am43 °FQuite cool.1 mph49%29.83 "HgN/A
8:20 am41 °FQuite cool.No wind53%29.83 "HgN/A
7:50 am37 °FChilly.3 mph60%29.83 "HgN/A
7:20 am37 °FChilly.2 mph65%29.83 "HgN/A
6:50 am28 °FChilly.2 mph86%29.83 "HgN/A
6:20 am28 °FChilly.2 mph86%29.80 "HgN/A
5:50 am28 °FChilly.2 mph80%29.83 "HgN/A
5:20 am28 °FChilly.3 mph80%29.83 "HgN/A
4:50 am27 °FChilly.3 mph74%29.83 "HgN/A
4:20 am28 °FChilly.2 mph74%29.80 "HgN/A
3:50 am30 °FChilly.3 mph69%29.80 "HgN/A
3:20 am28 °FChilly.3 mph74%29.80 "HgN/A
2:50 am27 °FChilly.2 mph74%29.83 "HgN/A
2:20 am28 °FChilly.2 mph74%29.80 "HgN/A
1:50 am32 °FChilly.3 mph64%29.83 "HgN/A
1:20 am32 °FChilly.6 mph64%29.83 "HgN/A
12:50 am34 °FChilly.6 mph60%29.83 "HgN/A
12:20 am34 °FChilly.7 mph56%29.83 "HgN/A
11:50 pm
Sat, Apr 22
36 °FChilly.7 mph52%29.80 "HgN/A
11:20 pm36 °FChilly.7 mph52%29.80 "HgN/A
10:50 pm36 °FChilly.6 mph52%29.80 "HgN/A
10:20 pm36 °FChilly.6 mph52%29.80 "HgN/A
9:50 pm37 °FChilly.6 mph48%29.80 "HgN/A
9:20 pm39 °FChilly.6 mph42%29.80 "HgN/A
8:50 pm41 °FClear.9 mph39%29.80 "Hg10 mi
8:20 pm43 °FSunny.10 mph39%29.77 "Hg10 mi
7:50 pm43 °FPassing clouds.12 mph39%29.77 "HgN/A
7:20 pm43 °FPassing clouds.18 mph36%29.77 "HgN/A
6:50 pm45 °FPassing clouds.16 mph37%29.77 "HgN/A
6:20 pm46 °FPassing clouds.15 mph32%29.74 "HgN/A
5:50 pm48 °FPassing clouds.18 mph27%29.74 "HgN/A
5:20 pm46 °FPassing clouds.18 mph29%29.74 "HgN/A
4:50 pm52 °FPassing clouds.15 mph26%29.74 "HgN/A
4:20 pm48 °FCool.18 mph29%29.71 "HgN/A
3:50 pm48 °FPassing clouds.16 mph34%29.71 "HgN/A
3:20 pm48 °FPassing clouds.14 mph37%29.74 "HgN/A
2:50 pm48 °FPassing clouds.20 mph34%29.71 "HgN/A
2:20 pm48 °FPassing clouds.15 mph34%29.71 "HgN/A
Weather by CustomWeather, © 2017

See weather overviewHow to use our weather pages